When you browse on this site, cookies collect data to enhance your experience and personalize the content and advertising you see.
Visit our Privacy Policy to learn more. By continuing to use the site, you agree to this use of cookies and data.

Météo par heure à Albany

Ce jour, 14 Août, Vendredi

Heure Température Précipitation Vent Pression Humidité
00:00 +10°C° 0.1 mm 2 m/s 758 mmHg 89%
01:00 +10°C° 0.1 mm 2 m/s 758 mmHg 90%
02:00 +9°C° 0 mm 2 m/s 758 mmHg 92%
03:00 +8°C° 0 mm 2 m/s 758 mmHg 93%
04:00 +8°C° 0 mm 3 m/s 758 mmHg 94%
05:00 +7°C° 0 mm 3 m/s 758 mmHg 95%
06:00 +8°C° 0.1 mm 3 m/s 758 mmHg 94%
07:00 +8°C° 0.1 mm 3 m/s 758 mmHg 94%
08:00 +8°C° 0 mm 3 m/s 758 mmHg 93%
09:00 +10°C° 0 mm 3 m/s 758 mmHg 86%
10:00 +12°C° 0 mm 3 m/s 758 mmHg 78%
11:00 +14°C° 0 mm 4 m/s 758 mmHg 70%
12:00 +14°C° 0 mm 3 m/s 758 mmHg 67%
13:00 +16°C° 0 mm 3 m/s 758 mmHg 64%
14:00 +17°C° 0 mm 2 m/s 757 mmHg 61%
15:00 +16°C° 0.1 mm 2 m/s 757 mmHg 67%
16:00 +15°C° 0.1 mm 1 m/s 757 mmHg 73%
17:00 +14°C° 0.1 mm 1 m/s 757 mmHg 79%
18:00 +14°C° 0 mm 2 m/s 757 mmHg 82%
19:00 +13°C° 0 mm 2 m/s 757 mmHg 84%
20:00 +12°C° 0 mm 2 m/s 758 mmHg 86%
21:00 +11°C° 0 mm 3 m/s 757 mmHg 88%
22:00 +10°C° 0 mm 3 m/s 757 mmHg 90%
23:00 +8°C° 0 mm 4 m/s 757 mmHg 91%

Demain, 15 Août, Samedi

Heure Température Précipitation Vent Pression Humidité
00:00 +8°C° 0 mm 4 m/s 757 mmHg 92%
01:00 +8°C° 0 mm 4 m/s 756 mmHg 93%
02:00 +8°C° 0 mm 4 m/s 756 mmHg 93%
03:00 +8°C° 0 mm 4 m/s 756 mmHg 93%
04:00 +8°C° 0 mm 4 m/s 755 mmHg 93%
05:00 +8°C° 0 mm 5 m/s 755 mmHg 93%
06:00 +9°C° 0 mm 5 m/s 755 mmHg 91%
07:00 +9°C° 0 mm 5 m/s 755 mmHg 90%
08:00 +9°C° 0 mm 5 m/s 754 mmHg 88%
09:00 +11°C° 0 mm 6 m/s 754 mmHg 80%
10:00 +14°C° 0 mm 7 m/s 754 mmHg 73%
11:00 +16°C° 0 mm 7 m/s 754 mmHg 65%
12:00 +17°C° 0 mm 7 m/s 752 mmHg 64%
13:00 +17°C° 0 mm 7 m/s 751 mmHg 63%
14:00 +19°C° 0 mm 6 m/s 750 mmHg 62%
15:00 +17°C° 0 mm 6 m/s 750 mmHg 64%
16:00 +16°C° 0 mm 5 m/s 750 mmHg 67%
17:00 +16°C° 0 mm 5 m/s 749 mmHg 69%
18:00 +15°C° 0.1 mm 5 m/s 749 mmHg 70%
19:00 +15°C° 0.1 mm 6 m/s 748 mmHg 72%
20:00 +14°C° 0.1 mm 6 m/s 748 mmHg 73%
21:00 +14°C° 0.5 mm 7 m/s 747 mmHg 80%
22:00 +12°C° 0.5 mm 8 m/s 747 mmHg 86%
23:00 +12°C° 0.5 mm 9 m/s 746 mmHg 93%

Après-demain, 16 Août, Dimanche

Heure Température Précipitation Vent Pression Humidité
00:00 +11°C° 0.1 mm 9 m/s 745 mmHg 90%
01:00 +11°C° 0.1 mm 9 m/s 744 mmHg 87%
02:00 +10°C° 0.1 mm 9 m/s 743 mmHg 85%
03:00 +9°C° 0 mm 10 m/s 743 mmHg 82%
04:00 +9°C° 0 mm 11 m/s 742 mmHg 78%
05:00 +9°C° 0 mm 12 m/s 741 mmHg 75%
06:00 +9°C° 1.1 mm 13 m/s 742 mmHg 80%
07:00 +9°C° 1.1 mm 14 m/s 742 mmHg 85%
08:00 +9°C° 1.1 mm 15 m/s 742 mmHg 90%
09:00 +8°C° 0.6 mm 14 m/s 744 mmHg 89%
10:00 +8°C° 0.6 mm 13 m/s 745 mmHg 88%
11:00 +8°C° 0.6 mm 12 m/s 747 mmHg 86%
12:00 +8°C° 0.4 mm 11 m/s 747 mmHg 81%
13:00 +9°C° 0.4 mm 10 m/s 748 mmHg 75%
14:00 +9°C° 0.4 mm 10 m/s 748 mmHg 69%
15:00 +10°C° 0 mm 9 m/s 748 mmHg 68%
16:00 +10°C° 0 mm 8 m/s 748 mmHg 67%
17:00 +9°C° 0 mm 7 m/s 748 mmHg 66%
18:00 +9°C° 1.6 mm 7 m/s 748 mmHg 74%
19:00 +7°C° 1.6 mm 8 m/s 749 mmHg 82%
20:00 +7°C° 1.6 mm 8 m/s 749 mmHg 89%
21:00 +6°C° 0.1 mm 8 m/s 749 mmHg 86%
22:00 +6°C° 0.1 mm 8 m/s 750 mmHg 83%
23:00 +6°C° 0.1 mm 7 m/s 751 mmHg 80%

17 Août, Lundi

Heure Température Précipitation Vent Pression Humidité
00:00 +6°C° 0.1 mm 7 m/s 751 mmHg 81%
01:00 +5°C° 0.1 mm 7 m/s 751 mmHg 81%
02:00 +5°C° 0.1 mm 7 m/s 751 mmHg 81%
03:00 +5°C° 0.1 mm 7 m/s 751 mmHg 83%
04:00 +5°C° 0.1 mm 7 m/s 751 mmHg 85%
05:00 +4°C° 0.1 mm 7 m/s 752 mmHg 87%
06:00 +5°C° 0.2 mm 7 m/s 752 mmHg 86%
07:00 +6°C° 0.2 mm 7 m/s 752 mmHg 85%
08:00 +6°C° 0.2 mm 8 m/s 752 mmHg 84%
09:00 +7°C° 0.1 mm 8 m/s 753 mmHg 79%
10:00 +8°C° 0.1 mm 9 m/s 753 mmHg 74%
11:00 +9°C° 0.1 mm 10 m/s 753 mmHg 69%
12:00 +10°C° 0.1 mm 9 m/s 753 mmHg 70%
13:00 +10°C° 0.1 mm 9 m/s 753 mmHg 72%
14:00 +10°C° 0.1 mm 9 m/s 752 mmHg 73%
15:00 +10°C° 0.1 mm 9 m/s 753 mmHg 73%
16:00 +8°C° 0.1 mm 9 m/s 753 mmHg 74%
17:00 +8°C° 0.1 mm 9 m/s 753 mmHg 75%
18:00 +8°C° 0.1 mm 9 m/s 753 mmHg 76%
19:00 +9°C° 0.1 mm 8 m/s 754 mmHg 77%
20:00 +9°C° 0.1 mm 8 m/s 754 mmHg 78%
21:00 +9°C° 0.1 mm 8 m/s 754 mmHg 78%
22:00 +9°C° 0.1 mm 8 m/s 754 mmHg 78%
23:00 +9°C° 0.1 mm 8 m/s 755 mmHg 78%

18 Août, Mardi

Heure Température Précipitation Vent Pression Humidité
00:00 +8°C° 0.1 mm 9 m/s 754 mmHg 78%
01:00 +8°C° 0.1 mm 9 m/s 754 mmHg 78%
02:00 +8°C° 0.1 mm 9 m/s 754 mmHg 77%
03:00 +8°C° 0 mm 9 m/s 754 mmHg 76%
04:00 +8°C° 0 mm 9 m/s 754 mmHg 74%
05:00 +8°C° 0 mm 10 m/s 755 mmHg 72%
06:00 +10°C° 0 mm 9 m/s 755 mmHg 74%
07:00 +10°C° 0 mm 9 m/s 755 mmHg 75%
08:00 +10°C° 0 mm 9 m/s 756 mmHg 76%
09:00 +10°C° 0.1 mm 9 m/s 756 mmHg 75%
10:00 +9°C° 0.1 mm 10 m/s 756 mmHg 75%
11:00 +11°C° 0.1 mm 10 m/s 756 mmHg 74%
12:00 +11°C° 0.1 mm 10 m/s 756 mmHg 73%
13:00 +11°C° 0.1 mm 10 m/s 756 mmHg 72%
14:00 +9°C° 0.1 mm 10 m/s 756 mmHg 72%
15:00 +10°C° 0.1 mm 9 m/s 756 mmHg 72%
16:00 +10°C° 0.1 mm 8 m/s 757 mmHg 73%
17:00 +10°C° 0.1 mm 7 m/s 757 mmHg 74%
18:00 +10°C° 0.1 mm 7 m/s 758 mmHg 76%
19:00 +10°C° 0.1 mm 6 m/s 758 mmHg 78%
20:00 +9°C° 0.1 mm 6 m/s 759 mmHg 81%
21:00 +9°C° 0.2 mm 5 m/s 759 mmHg 82%
22:00 +9°C° 0.2 mm 5 m/s 759 mmHg 84%
23:00 +9°C° 0.2 mm 5 m/s 759 mmHg 86%

19 Août, Mercredi

Heure Température Précipitation Vent Pression Humidité
00:00 +9°C° 0.1 mm 5 m/s 759 mmHg 87%
01:00 +10°C° 0.1 mm 4 m/s 759 mmHg 88%
02:00 +10°C° 0.1 mm 4 m/s 759 mmHg 88%
03:00 +10°C° 0.2 mm 4 m/s 759 mmHg 89%
04:00 +10°C° 0.2 mm 4 m/s 759 mmHg 89%
05:00 +8°C° 0.2 mm 4 m/s 759 mmHg 89%
06:00 +10°C° 0.2 mm 4 m/s 759 mmHg 89%
07:00 +10°C° 0.2 mm 4 m/s 760 mmHg 89%
08:00 +10°C° 0.2 mm 4 m/s 760 mmHg 89%
09:00 +11°C° 0.2 mm 4 m/s 760 mmHg 84%
10:00 +12°C° 0.2 mm 4 m/s 760 mmHg 79%
11:00 +14°C° 0.2 mm 5 m/s 761 mmHg 75%
12:00 +14°C° 0.2 mm 5 m/s 760 mmHg 75%
13:00 +14°C° 0.2 mm 5 m/s 760 mmHg 75%
14:00 +13°C° 0.2 mm 5 m/s 760 mmHg 76%
15:00 +13°C° 0.2 mm 5 m/s 760 mmHg 78%
16:00 +12°C° 0.2 mm 4 m/s 760 mmHg 81%
17:00 +12°C° 0.2 mm 4 m/s 760 mmHg 83%
18:00 +11°C° 0.1 mm 3 m/s 761 mmHg 85%
19:00 +10°C° 0.1 mm 3 m/s 761 mmHg 87%
20:00 +9°C° 0.1 mm 3 m/s 762 mmHg 89%
21:00 +9°C° 0 mm 3 m/s 762 mmHg 88%
22:00 +9°C° 0 mm 2 m/s 762 mmHg 87%
23:00 +8°C° 0 mm 2 m/s 762 mmHg 86%
Voir plus